ORBCOMM FM116

Last updated on Tue Sep 22 2026 00:03:23 GMT+0000 (Coordinated Universal Time)

1 41189U 15081L 26264.17936691 .00000293 00000+0 98032-4 0 9999 2 41189 47.0015 176.7160 0000786 159.7668 200.3249 14.58965341572957
UTC large
Height (km)
Speed (km/s)
/
Latitude / Longitude
Inclination (degrees)
Orbital Period (minutes)
Azimuth
Elevation
Range (km)
Doppler Factor

Next 0 passes for location: London (51.5072 / 0.1276)

No passes found over London.
ORBCOMM FM116